Location: Unspecified
(0.0000°N, 0.0000°E)
Time: 07:18:57
(UTC+00:00)

STRAND 1 - Pass Details

Date: 13 August 2024
Orbit: 764 x 777 km, 98.4° (Epoch: 15 September)

Event Time Altitude Azimuth Distance (km) Brightness Sun altitude
Rises 18:51:47 0° 344° (NNW) 3,222 ? -11.4°
Reaches altitude 10° 18:54:43 10° 326° (NW) 2,302 ? -12.1°
Maximum altitude 18:58:11 19° 283° (WNW) 1,780 ? -12.9°
Drops below altitude 10° 19:01:41 10° 239° (WSW) 2,314 ? -13.8°
Sets 19:04:39 0° 221° (SW) 3,247 ? -14.5°
